Tempos de volta de RENTAL PROVA 1 - 19:30
KARTODROMO INTERNACIONAL GRANJA VIANA a funcionar KGV RACE TRACKS - CIRCUITO 101
Tempos de volta de RENTAL - PROVA 1 - 19:30


Hora do dia Volta Volta do Líder Volta Tm Velocidade
029 - JOSUEL HORA ROSALINO - RENTAL
19:38:55.878 1 1 59.713 61,193
19:39:55.791 2 2 59.913 60,988
19:40:57.110 3 3 1:01.319 59,590
19:41:56.865 4 4 59.755 61,150
19:42:56.875 5 5 1:00.010 60,890
19:43:56.666 6 6 59.791 61,113
19:44:56.900 7 7 1:00.234 60,663
19:45:56.752 8 8 59.852 61,051
19:46:56.590 9 9 59.838 61,065
19:47:57.559 10 10 1:00.969 59,932
19:48:57.082 11 11 59.523 61,388
19:49:56.827 12 12 59.745 61,160
19:50:55.972 13 13 59.145 61,780
19:51:56.948 14 14 1:00.976 59,925
19:52:57.039 15 15 1:00.091 60,808
19:53:56.665 16 16 59.626 61,282
19:54:57.027 17 17 1:00.362 60,535
001 - LEONARDO MOREIRA DO NASCIMENTO - RENTAL
19:38:56.080 1 1 59.751 61,154
19:39:55.892 2 2 59.812 61,091
19:40:57.341 3 3 1:01.449 59,464
19:41:57.115 4 4 59.774 61,130
19:42:56.981 5 5 59.866 61,036
19:43:56.983 6 6 1:00.002 60,898
19:44:56.560 7 7 59.577 61,332
19:45:56.072 8 8 59.512 61,399
19:46:56.673 9 9 1:00.601 60,296
19:47:57.912 10 10 1:01.239 59,668
19:48:57.319 11 11 59.407 61,508
19:49:57.457 12 12 1:00.138 60,760
19:50:56.898 13 13 59.441 61,473
19:51:58.548 14 14 1:01.650 59,270
19:52:58.928 15 15 1:00.380 60,517
19:53:58.436 16 16 59.508 61,404
19:54:57.759 17 17 59.323 61,595
004 - VALDEMIR FRANCISCO DE SOUZA - RENTAL
19:38:58.205 1 1 1:00.323 60,574
19:39:57.935 2 2 59.730 61,175
19:40:57.517 3 3 59.582 61,327
19:41:57.647 4 4 1:00.130 60,768
19:42:58.173 5 5 1:00.526 60,371
19:43:59.778 6 6 1:01.605 59,313
19:44:59.787 7 7 1:00.009 60,891
19:45:59.584 8 8 59.797 61,107
19:47:01.328 9 9 1:01.744 59,180
19:48:01.813 10 10 1:00.485 60,412
19:49:03.365 11 11 1:01.552 59,364
19:50:04.861 12 12 1:01.496 59,418
19:51:04.841 13 13 59.980 60,920
19:52:06.099 14 14 1:01.258 59,649
19:53:06.394 15 15 1:00.295 60,602
19:54:06.182 16 16 59.788 61,116
19:55:06.238 17 17 1:00.056 60,843
006 - JOSE PRIOSTE - RENTAL
19:39:13.980 1 1 1:00.881 60,019
19:40:13.519 2 2 59.539 61,372
19:41:14.143 3 3 1:00.624 60,273
19:42:14.036 4 4 59.893 61,009
19:43:14.132 5 5 1:00.096 60,803
19:44:13.318 6 6 59.186 61,738
19:45:12.877 7 7 59.559 61,351
19:46:12.577 8 8 59.700 61,206
19:47:12.059 9 9 59.482 61,430
19:48:12.217 10 10 1:00.158 60,740
19:49:12.502 11 11 1:00.285 60,612
19:50:12.079 12 12 59.577 61,332
19:51:12.004 13 13 59.925 60,976
19:52:12.202 14 14 1:00.198 60,700
19:53:12.685 15 15 1:00.483 60,414
19:54:11.659 16 16 58.974 61,960
19:55:10.387 17 17 58.728 62,219
034 - LEANDRO PINHEIRO - RENTAL
19:38:56.472 1 1 59.634 61,274
19:39:56.179 2 2 59.707 61,199
19:41:08.228 3 3 1:12.049 50,715
19:42:08.501 4 4 1:00.273 60,624
19:43:08.560 5 5 1:00.059 60,840
19:44:09.190 6 6 1:00.630 60,267
19:45:09.013 7 7 59.823 61,080
19:46:08.899 8 8 59.886 61,016
19:47:09.157 9 9 1:00.258 60,639
19:48:09.710 10 10 1:00.553 60,344
19:49:09.784 11 11 1:00.074 60,825
19:50:10.039 12 12 1:00.255 60,642
19:51:09.477 13 13 59.438 61,476
19:52:11.428 14 14 1:01.951 58,982
19:53:12.089 15 15 1:00.661 60,236
19:54:11.634 16 16 59.545 61,365
19:55:11.819 17 17 1:00.185 60,713
016 - GUILHERME FIGUEIREDO - RENTAL
19:38:57.984 1 1 1:00.248 60,649
19:40:01.127 2 2 1:03.143 57,869
19:41:03.627 3 3 1:02.500 58,464
19:42:12.977 4 4 1:09.350 52,689
19:43:14.080 5 5 1:01.103 59,801
19:44:14.646 6 6 1:00.566 60,331
19:45:15.411 7 7 1:00.765 60,133
19:46:16.801 8 8 1:01.390 59,521
19:47:16.900 9 9 1:00.099 60,800
19:48:17.219 10 10 1:00.319 60,578
19:49:17.318 11 11 1:00.099 60,800
19:50:17.456 12 12 1:00.138 60,760
19:51:18.416 13 13 1:00.960 59,941
19:52:18.451 14 14 1:00.035 60,864
19:53:19.488 15 15 1:01.037 59,865
19:54:19.387 16 16 59.899 61,003
19:55:19.985 17 17 1:00.598 60,299
019 - EDERSON MELO - RENTAL
19:39:13.889 1 1 1:00.777 60,121
19:40:13.429 2 2 59.540 61,371
19:41:14.052 3 3 1:00.623 60,274
19:42:13.948 4 4 59.896 61,006
19:43:15.233 5 5 1:01.285 59,623
19:44:15.941 6 6 1:00.708 60,190
19:45:16.125 7 7 1:00.184 60,714
19:46:16.361 8 8 1:00.236 60,661
19:47:16.307 9 9 59.946 60,955
19:48:16.809 10 10 1:00.502 60,395
19:49:16.773 11 11 59.964 60,937
19:50:17.668 12 12 1:00.895 60,005
19:51:19.101 13 13 1:01.433 59,479
19:52:18.756 14 14 59.655 61,252
19:53:19.734 15 15 1:00.978 59,923
19:54:20.326 16 16 1:00.592 60,305
19:55:20.113 17 17 59.787 61,117
035 - JOHNNY SILVA - RENTAL
19:39:13.793 1 1 1:01.646 59,274
19:40:13.329 2 2 59.536 61,375
19:41:13.957 3 3 1:00.628 60,269
19:42:13.766 4 4 59.809 61,094
19:43:13.452 5 5 59.686 61,220
19:44:13.232 6 6 59.780 61,124
19:45:12.791 7 7 59.559 61,351
19:46:12.492 8 8 59.701 61,205
19:47:11.969 9 9 59.477 61,436
19:48:12.129 10 10 1:00.160 60,738
19:49:12.414 11 11 1:00.285 60,612
19:50:11.990 12 12 59.576 61,333
19:51:11.900 13 13 59.910 60,991
19:52:12.904 14 14 1:01.004 59,898
19:53:19.099 15 15 1:06.195 55,201
19:54:20.719 16 16 1:01.620 59,299
19:55:21.050 17 17 1:00.331 60,566
030 - SIDNEY GONÇALEZ - RENTAL
19:39:00.097 1 1 1:01.153 59,752
19:40:01.022 2 2 1:00.925 59,975
19:41:04.468 3 3 1:03.446 57,592
19:42:05.928 4 4 1:01.460 59,453
19:43:08.041 5 5 1:02.113 58,828
19:44:09.227 6 6 1:01.186 59,720
19:45:11.292 7 7 1:02.065 58,874
19:46:12.221 8 8 1:00.929 59,971
19:47:13.873 9 9 1:01.652 59,268
19:48:15.535 10 10 1:01.662 59,259
19:49:16.483 11 11 1:00.948 59,953
19:50:17.144 12 12 1:00.661 60,236
19:51:19.818 13 13 1:02.674 58,302
19:52:21.164 14 14 1:01.346 59,564
19:53:22.475 15 15 1:01.311 59,598
19:54:22.785 16 16 1:00.310 60,587
19:55:24.120 17 17 1:01.335 59,574
011 - ANDERSON RENATO ARAUJO - RENTAL
19:38:59.013 1 1 1:00.308 60,589
19:40:00.848 2 2 1:01.835 59,093
19:41:03.201 3 3 1:02.353 58,602
19:42:05.081 4 4 1:01.880 59,050
19:43:08.459 5 5 1:03.378 57,654
19:44:15.800 6 6 1:07.341 54,261
19:45:16.867 7 7 1:01.067 59,836
19:46:17.711 8 8 1:00.844 60,055
19:47:18.500 9 9 1:00.789 60,110
19:48:20.750 10 10 1:02.250 58,699
19:49:21.546 11 11 1:00.796 60,103
19:50:22.533 12 12 1:00.987 59,914
19:51:23.379 13 13 1:00.846 60,053
19:52:24.277 14 14 1:00.898 60,002
19:53:27.098 15 15 1:02.821 58,165
19:54:28.187 16 16 1:01.089 59,814
19:55:29.529 17 17 1:01.342 59,568
017 - WELLINGTON TEIXEIRA MOGGI - RENTAL
19:39:14.734 1 1 1:01.452 59,461
19:40:15.459 2 2 1:00.725 60,173
19:41:16.424 3 3 1:00.965 59,936
19:42:17.238 4 4 1:00.814 60,085
19:43:18.955 5 5 1:01.717 59,206
19:44:20.179 6 6 1:01.224 59,682
19:45:21.246 7 7 1:01.067 59,836
19:46:22.207 8 8 1:00.961 59,940
19:47:23.233 9 9 1:01.026 59,876
19:48:24.240 10 10 1:01.007 59,895
19:49:25.551 11 11 1:01.311 59,598
19:50:25.897 12 12 1:00.346 60,551
19:51:26.959 13 13 1:01.062 59,841
19:52:27.609 14 14 1:00.650 60,247
19:53:28.310 15 15 1:00.701 60,197
19:54:30.300 16 16 1:01.990 58,945
19:55:30.884 17 17 1:00.584 60,313
012 - WILLY BRUNNER - RENTAL
19:39:06.200 1 1 1:02.259 58,690
19:40:08.264 2 2 1:02.064 58,875
19:41:10.858 3 3 1:02.594 58,376
19:42:13.902 4 4 1:03.044 57,960
19:43:18.210 5 5 1:04.308 56,820
19:44:21.018 6 6 1:02.808 58,177
19:45:23.077 7 7 1:02.059 58,879
19:46:25.950 8 8 1:02.873 58,117
19:47:28.454 9 9 1:02.504 58,460
19:48:30.338 10 10 1:01.884 59,046
19:49:34.222 11 11 1:03.884 57,197
19:50:36.179 12 12 1:01.957 58,976
19:51:38.085 13 13 1:01.906 59,025
19:52:39.674 14 14 1:01.589 59,329
19:53:41.903 15 15 1:02.229 58,719
19:54:44.137 16 16 1:02.234 58,714
19:55:45.780 17 17 1:01.643 59,277
014 - RODRIGO MACEDO GERALDES - RENTAL
19:39:18.190 1 1 1:08.406 53,416
19:40:25.756 2 2 1:07.566 54,080
19:41:31.483 3 3 1:05.727 55,594
19:42:38.079 4 4 1:06.596 54,868
19:43:42.932 5 5 1:04.853 56,343
19:44:47.349 6 6 1:04.417 56,724
19:45:53.384 7 7 1:06.035 55,334
19:46:59.609 8 9 1:06.225 55,176
19:48:04.173 9 10 1:04.564 56,595
19:49:09.681 10 11 1:05.508 55,779
19:50:13.853 11 12 1:04.172 56,941
19:51:20.211 12 13 1:06.358 55,065
19:52:23.717 13 14 1:03.506 57,538
19:53:28.063 14 15 1:04.346 56,787
19:54:32.083 15 16 1:04.020 57,076
19:55:36.295 16 17 1:04.212 56,905
033 - FERNANDO ARCHANJO - RENTAL
19:39:29.661 1 1 1:07.366 54,241
19:40:35.211 2 2 1:05.550 55,744
19:41:40.921 3 3 1:05.710 55,608
19:42:46.148 4 4 1:05.227 56,020
19:43:51.202 5 5 1:05.054 56,169
19:44:56.521 6 6 1:05.319 55,941
19:46:25.666 7 8 1:29.145 40,989
19:47:30.013 8 9 1:04.347 56,786
19:48:34.155 9 10 1:04.142 56,967
19:49:48.111 10 11 1:13.956 49,408
19:50:52.844 11 12 1:04.733 56,447
19:51:56.821 12 13 1:03.977 57,114
19:53:00.813 13 15 1:03.992 57,101
19:54:03.848 14 16 1:03.035 57,968
19:55:12.054 15 17 1:08.206 53,573
032 - FILIPE BRAGA AMARAL - RENTAL
19:39:48.902 1 1 1:15.751 48,237
19:41:17.142 2 3 1:28.240 41,410
19:42:40.498 3 4 1:23.356 43,836
19:43:43.076 4 5 1:02.578 58,391
19:44:44.251 5 6 1:01.175 59,730
19:45:44.924 6 7 1:00.673 60,224
19:46:59.830 7 9 1:14.906 48,781
19:48:02.379 8 10 1:02.549 58,418
19:49:04.438 9 11 1:02.059 58,879
19:50:04.960 10 12 1:00.522 60,375
19:51:06.208 11 13 1:01.248 59,659
19:52:07.646 12 14 1:01.438 59,475
19:53:17.208 13 15 1:09.562 52,529
19:54:42.138 14 16 1:24.930 43,024
19:56:08.209 15 17 1:26.071 42,453
025 - FRANCISCO ADRIANO DA SILVA TAV - RENTAL
19:39:34.848 1 1 1:13.812 49,504
19:40:45.504 2 2 1:10.656 51,715
19:41:54.481 3 3 1:08.977 52,974
19:43:13.275 4 5 1:18.794 46,374
19:44:23.714 5 6 1:10.439 51,875
19:45:35.016 6 7 1:11.302 51,247
19:46:45.198 7 8 1:10.182 52,065
19:48:00.620 8 10 1:15.422 48,447
19:49:15.290 9 11 1:14.670 48,935
19:50:25.832 10 12 1:10.542 51,799
19:51:35.120 11 13 1:09.288 52,736
19:52:43.416 12 14 1:08.296 53,502
19:53:54.900 13 15 1:11.484 51,116
19:55:12.798 14 17 1:17.898 46,907
024 - FABIANA SILVIA LEITE ARCHANJO - RENTAL
19:39:34.015 1 1 1:16.819 47,566
19:40:48.855 2 2 1:14.840 48,824
19:42:03.202 3 4 1:14.347 49,148
19:43:18.942 4 5 1:15.740 48,244
19:44:33.910 5 6 1:14.968 48,741
19:45:50.207 6 7 1:16.297 47,892
19:47:06.546 7 9 1:16.339 47,865
19:48:50.644 8 10 1:44.098 35,102
19:50:04.822 9 12 1:14.178 49,260
19:51:23.282 10 13 1:18.460 46,572
19:52:38.526 11 14 1:15.244 48,562
19:53:54.013 12 15 1:15.487 48,406
19:55:10.768 13 17 1:16.755 47,606
005 - RAILANA COSTA MORAES - RENTAL
19:39:50.566 1 1 1:17.661 47,051
19:41:16.866 2 3 1:26.300 42,341
19:42:43.470 3 4 1:26.604 42,192
19:44:07.998 4 6 1:24.528 43,228
19:45:34.374 5 7 1:26.376 42,303
19:47:04.043 6 9 1:29.669 40,750
19:48:20.229 7 10 1:16.186 47,962
19:49:43.068 8 11 1:22.839 44,110
19:50:54.084 9 12 1:11.016 51,453
19:52:07.335 10 14 1:13.251 49,883
19:53:26.656 11 15 1:19.321 46,066
19:54:50.194 12 16 1:23.538 43,741
19:56:08.641 13 17 1:18.447 46,579
002 - SIDNEY FERNANDES - RENTAL
19:39:43.855 1 1 1:19.629 45,888
19:40:58.464 2 3 1:14.609 48,975
19:42:10.458 3 4 1:11.994 50,754
19:43:27.162 4 5 1:16.704 47,638
19:44:41.367 5 6 1:14.205 49,242
19:45:53.178 6 7 1:11.811 50,884
19:47:10.490 7 9 1:17.312 47,263
19:48:26.860 8 10 1:16.370 47,846
19:49:47.261 9 11 1:20.401 45,447
19:50:59.744 10 13 1:12.483 50,412
19:52:17.940 11 14 1:18.196 46,729
19:53:31.490 12 15 1:13.550 49,680
Gerada em 03/09/2020 19:58